[TLELIST] Archives

 

[list_settings.list_name] Current TLEs

August 8th 2014 PDT

HST 1 20580U 90037B 14219.76945413 .00001992 00000-0 12302-3 0 713 2 20580 028.4705 058.0062 0003206 113.0720 344.9168 15.05600065132491 ISS (ZARYA) 1 25544U 98067A 14220.18829771 .00008025 00000-0 14524-3 0 8568 2 25544 051.6456 201.8216 0006941 346.5992 118.8520 15.50616353899395 CXO 1 25867U 99040B 14220.79197222 .00000457 00000-0 00000+0 0 488 2 25867 076.9533 318.6033 8039072 273.5382 000.5405 00.37801903 12116 ____________________________________________________________________ These 2-Line ...Continue Reading

[list_settings.list_name] Current TLEs

August 7th 2014 PDT

HST 1 20580U 90037B 14218.05234448 .00002159 00000-0 13429-3 0 709 2 20580 028.4703 069.2972 0003321 095.5652 037.0496 15.05593216132245 ISS (ZARYA) 1 25544U 98067A 14219.48624894 .00008234 00000-0 14887-3 0 8494 2 25544 051.6455 205.3038 0006909 343.5129 160.3763 15.50605452899285 CXO 1 25867U 99040B 14220.79197222 .00000457 00000-0 00000+0 0 488 2 25867 076.9533 318.6033 8039072 273.5382 000.5405 00.37801903 12116 ____________________________________________________________________ These 2-Line ...Continue Reading

[list_settings.list_name] Current TLEs

August 6th 2014 PDT

HST 1 20580U 90037B 14218.05234448 .00002159 00000-0 13429-3 0 709 2 20580 028.4703 069.2972 0003321 095.5652 037.0496 15.05593216132245 ISS (ZARYA) 1 25544U 98067A 14218.44211956 .00008132 00000-0 14723-3 0 8407 2 25544 051.6460 210.4771 0006665 339.2369 092.3211 15.50587006899128 CXO 1 25867U 99040B 14218.14657779 .00000404 00000-0 00000+0 0 473 2 25867 076.9500 318.7186 8043551 273.5427 000.5402 00.37800024 12106 ____________________________________________________________________ These 2-Line ...Continue Reading

[list_settings.list_name] Current TLEs

August 5th 2014 PDT

HST 1 20580U 90037B 14216.06773435 .00002290 00000-0 14323-3 0 690 2 20580 028.4704 082.3406 0003233 075.3913 079.1547 15.05584792131941 ISS (ZARYA) 1 25544U 98067A 14216.52146836 .00007469 00000-0 13604-3 0 8328 2 25544 051.6438 220.0005 0006693 332.0295 171.2614 15.50551777898826 CXO 1 25867U 99040B 14218.14657779 .00000404 00000-0 00000+0 0 473 2 25867 076.9500 318.7186 8043551 273.5427 000.5402 00.37800024 12106 ____________________________________________________________________ These 2-Line ...Continue Reading

[list_settings.list_name] Current TLEs

August 4th 2014 PDT

HST 1 20580U 90037B 14216.06773435 .00002290 00000-0 14323-3 0 690 2 20580 028.4704 082.3406 0003233 075.3913 079.1547 15.05584792131941 ISS (ZARYA) 1 25544U 98067A 14216.25503721 .00007121 00000-0 13010-3 0 8302 2 25544 051.6460 221.3213 0006592 329.6389 125.4540 15.50546223898784 CXO 1 25867U 99040B 14218.14657779 .00000404 00000-0 00000+0 0 473 2 25867 076.9500 318.7186 8043551 273.5427 000.5402 00.37800024 12106 ____________________________________________________________________ These 2-Line ...Continue Reading

[list_settings.list_name] Current TLEs

August 3rd 2014 PDT

HST 1 20580U 90037B 14214.79189795 .00002257 00000-0 14101-3 0 684 2 20580 028.4704 090.7293 0003270 062.7109 003.0262 15.05579868131742 ISS (ZARYA) 1 25544U 98067A 14215.42584164 .00006354 00000-0 11703-3 0 8258 2 25544 051.6461 225.4327 0006511 326.5598 176.9465 15.50530813898656 CXO 1 25867U 99040B 14215.50182519 .00000294 00000-0 00000+0 0 450 2 25867 076.9492 318.8227 8046430 273.5555 000.6079 00.37801206 12096 ____________________________________________________________________ These 2-Line ...Continue Reading

[list_settings.list_name] Current TLEs

August 2nd 2014 PDT

HST 1 20580U 90037B 14213.14655932 .00002086 00000-0 12945-3 0 676 2 20580 028.4704 101.5477 0003253 046.2206 084.0595 15.05570649131503 ISS (ZARYA) 1 25544U 98067A 14214.51884721 .00006604 00000-0 12136-3 0 8180 2 25544 051.6465 229.9316 0006651 322.0023 155.4101 15.50518454898517 CXO 1 25867U 99040B 14215.50182519 .00000294 00000-0 00000+0 0 450 2 25867 076.9492 318.8227 8046430 273.5555 000.6079 00.37801206 12096 ____________________________________________________________________ These 2-Line ...Continue Reading

[list_settings.list_name] Current TLEs

August 1st 2014 PDT

HST 1 20580U 90037B 14212.08123550 .00001455 00000-0 86739-4 0 665 2 20580 028.4703 108.5523 0003245 035.6199 069.1495 15.05567770131330 ISS (ZARYA) 1 25544U 98067A 14213.42725943 .00004111 00000-0 78617-4 0 8110 2 25544 051.6466 235.3410 0006374 318.2505 182.0694 15.50497703898345 CXO 1 25867U 99040B 14212.85831315 .00000235 00000-0 00000+0 0 444 2 25867 076.9460 318.9430 8048404 273.5743 000.8131 00.37801100 12083 ____________________________________________________________________ These 2-Line ...Continue Reading

[list_settings.list_name] Current TLEs

July 31st 2014 PDT

HST 1 20580U 90037B 14212.08123550 .00001455 00000-0 86739-4 0 665 2 20580 028.4703 108.5523 0003245 035.6199 069.1495 15.05567770131330 ISS (ZARYA) 1 25544U 98067A 14212.46052806 .00003949 00000-0 75869-4 0 8051 2 25544 051.6469 240.1336 0006276 314.0957 186.5800 15.50488186898191 CXO 1 25867U 99040B 14212.85831315 .00000235 00000-0 00000+0 0 444 2 25867 076.9460 318.9430 8048404 273.5743 000.8131 00.37801100 12083 ____________________________________________________________________ These 2-Line ...Continue Reading

[list_settings.list_name] Current TLEs

July 30th 2014 PDT

HST 1 20580U 90037B 14210.81101655 .00001407 00000-0 83495-4 0 658 2 20580 028.4703 116.9038 0003214 022.9203 023.6251 15.05563308131142 ISS (ZARYA) 1 25544U 98067A 14211.48332319 .00003887 00000-0 74828-4 0 7988 2 25544 051.6476 244.9763 0006370 310.2632 132.3041 15.50479423898042 CXO 1 25867U 99040B 14212.85831315 .00000235 00000-0 00000+0 0 444 2 25867 076.9460 318.9430 8048404 273.5743 000.8131 00.37801100 12083 ____________________________________________________________________ These 2-Line ...Continue Reading
  • This mailing list is a public mailing list - anyone may join or leave, at any time.
  • This mailing list is announce-only.

International Space Station (ISS) / Hubble Space Telescope (HST) / Chandra X-Ray Observatory Orbital Data via EMAIL

Privacy Policy:

Private list